User: anonymous   Login
Location: Ferchesar
(52.6477°N, 12.4298°E)
Time: 08:41:03
(UTC+01:00)
Language:

S-56A Canister/Altair - Orbit

View from above orbital plane
View from above orbital plane
View from above satellite
View from above satellite

Ground track
Ground track

The orbit data is extracted from the following two-line orbital elements,

1 00082U 61004B   22333.81435767  .00000054  00000-0  97501-4 0  9990
2 00082  38.8514 123.2400 1168463  84.4957 288.7581 12.26049965917706
Epoch (UTC): 29 November 2022 19:32:40
Eccentricity: 0.1168463
inclination: 38.8514°
perigee height: 638 km
apogee height: 2494 km
right ascension of ascending node: 123.2400°
argument of perigee: 84.4957°
revolutions per day: 12.26049965
mean anomaly at epoch: 288.7581°
orbit number at epoch: 91770

The dashed part of the orbit path shows where the satellite is in the earth's shadow,  

DLR